Weather History for Wendover, UT

Change the Weather History Date:

Monday, November 18, 2013

  Actual Average Record
Temperature  
Mean Temperature 37 °F -  
Max Temperature 48 °F 43 °F 66 °F (1942)
Min Temperature 26 °F 28 °F 11 °F (1958)
Degree Days  
Heating Degree Days 28    
Moisture  
Dew Point 23 °F    
Average Humidity 58    
Maximum Humidity 74    
Minimum Humidity 43    
Precipitation  
Precipitation 0.00 in - - ()
Sea Level Pressure  
Sea Level Pressure 30.08 in    
Wind  
Wind Speed 2 mph (East)    
Max Wind Speed 8 mph    
Max Gust Speed -    
Visibility 10 miles    
Events      
Averages and records for this station are not official NWS values.
T = Trace of Precipitation, MM = Missing Value Source: NWS Daily Summary

Daily Weather History Graph

Daily Weather History Graph

Search for Another Location

Airport:

Trip Planner

Search our weather history database for the weather conditions in past years. The results will help you decide how hot, cold, wet, or windy it might be!

Date:

Astronomy

Nov. 18, 2013 Rise Set
Actual Time 7:26 AM MST 5:15 PM MST
Civil Twilight 6:57 AM MST 5:45 PM MST
Nautical Twilight 6:23 AM MST 6:18 PM MST
Astronomical Twilight 5:51 AM MST 6:50 PM MST
Moon 6:21 PM MST (11/18) 8:19 AM MST (11/18)
Length of Visible Light 10h 47m
Length of Day
9h 48m
Full, 99% of the Moon is Illuminated
Nov 18
Full
Nov 25
Last Quarter
Dec 2
New
Dec 9
First Quarter
Dec 17
Full

Hourly Weather History & Observations

Time (MST) Temp. Windchill Dew Point Humidity Pressure Visibility Wind Dir Wind Speed Gust Speed Precip Events Conditions
12:15 AM 32.0 °F 28.7 °F 21.2 °F 64% 30.13 in 10.0 mi SSW 3.5 mph - N/A   Clear
12:35 AM 30.2 °F - 19.4 °F 64% 30.14 in 10.0 mi Calm Calm - N/A   Clear
12:55 AM 30.2 °F - 21.2 °F 69% 30.14 in 10.0 mi Calm Calm - N/A   Clear
1:15 AM 32.0 °F 28.7 °F 21.2 °F 64% 30.14 in 10.0 mi SSE 3.5 mph - N/A   Clear
1:35 AM 30.2 °F - 19.4 °F 64% 30.14 in 10.0 mi Calm Calm - N/A   Clear
1:55 AM 32.0 °F - 19.4 °F 60% 30.14 in 10.0 mi Calm Calm - N/A   Clear
2:15 AM 30.2 °F - 21.2 °F 69% 30.14 in 10.0 mi Calm Calm - N/A   Clear
2:35 AM 30.2 °F - 21.2 °F 69% 30.15 in 10.0 mi Calm Calm - N/A   Clear
2:55 AM 28.4 °F 22.2 °F 17.6 °F 64% 30.14 in 10.0 mi ENE 5.8 mph - N/A   Clear
3:15 AM 28.4 °F - 19.4 °F 69% 30.14 in 10.0 mi Calm Calm - N/A   Clear
3:35 AM 30.2 °F 24.3 °F 19.4 °F 64% 30.15 in 10.0 mi NE 5.8 mph - N/A   Clear
3:55 AM 30.2 °F 26.7 °F 21.2 °F 69% 30.15 in 10.0 mi NE 3.5 mph - N/A   Clear
4:15 AM 30.2 °F 26.7 °F 21.2 °F 69% 30.14 in 10.0 mi NE 3.5 mph - N/A   Clear
4:35 AM 28.4 °F 23.3 °F 19.4 °F 69% 30.15 in 10.0 mi NE 4.6 mph - N/A   Clear
4:55 AM 28.4 °F 23.3 °F 19.4 °F 69% 30.16 in 10.0 mi ENE 4.6 mph - N/A   Clear
5:15 AM 28.4 °F 24.6 °F 19.4 °F 69% 30.16 in 10.0 mi ENE 3.5 mph - N/A   Clear
5:35 AM 28.4 °F - 19.4 °F 69% 30.15 in 10.0 mi Calm Calm - N/A   Clear
5:55 AM 28.4 °F - 21.2 °F 74% 30.15 in 10.0 mi Calm Calm - N/A   Clear
6:15 AM 28.4 °F - 19.4 °F 69% 30.15 in 10.0 mi Calm Calm - N/A   Clear
6:35 AM 28.4 °F - 21.2 °F 74% 30.15 in 10.0 mi Calm Calm - N/A   Clear
6:55 AM 28.4 °F 24.6 °F 19.4 °F 69% 30.15 in 10.0 mi East 3.5 mph - N/A   Clear
7:15 AM 26.6 °F - 19.4 °F 74% 30.16 in 10.0 mi Calm Calm - N/A   Clear
7:35 AM 26.6 °F 22.6 °F 19.4 °F 74% 30.16 in 10.0 mi NE 3.5 mph - N/A   Clear
7:55 AM 26.6 °F 20.0 °F 17.6 °F 69% 30.17 in 10.0 mi WNW 5.8 mph - N/A   Clear
8:15 AM 28.4 °F - 19.4 °F 69% 30.17 in 10.0 mi Calm Calm - N/A   Clear
8:35 AM 30.2 °F - 21.2 °F 69% 30.17 in 10.0 mi Calm Calm - N/A   Clear
8:55 AM 32.0 °F - 21.2 °F 64% 30.17 in 10.0 mi Calm Calm - N/A   Clear
9:15 AM 35.6 °F 32.8 °F 24.8 °F 65% 30.18 in 10.0 mi ESE 3.5 mph - N/A   Clear
9:35 AM 37.4 °F - 24.8 °F 60% 30.18 in 10.0 mi Calm Calm - N/A   Clear
9:55 AM 37.4 °F - 24.8 °F 60% 30.18 in 10.0 mi Calm Calm - N/A   Clear
10:15 AM 39.2 °F 37.0 °F 24.8 °F 56% 30.18 in 10.0 mi SE 3.5 mph - N/A   Clear
10:35 AM 39.2 °F 37.0 °F 24.8 °F 56% 30.17 in 10.0 mi ESE 3.5 mph - N/A   Clear
10:55 AM 41.0 °F 37.1 °F 24.8 °F 53% 30.17 in 10.0 mi East 5.8 mph - N/A   Clear
11:15 AM 42.8 °F 41.1 °F 24.8 °F 49% 30.16 in 10.0 mi ESE 3.5 mph - N/A   Clear
11:35 AM 42.8 °F 41.1 °F 24.8 °F 49% 30.15 in 10.0 mi ESE 3.5 mph - N/A   Clear
11:55 AM 42.8 °F 41.1 °F 24.8 °F 49% 30.14 in 10.0 mi ESE 3.5 mph - N/A   Clear
12:15 PM 44.6 °F 42.2 °F 24.8 °F 46% 30.12 in 10.0 mi ESE 4.6 mph - N/A   Clear
12:35 PM 44.6 °F 41.4 °F 26.6 °F 49% 30.11 in 10.0 mi East 5.8 mph - N/A   Clear
12:55 PM 44.6 °F 42.2 °F 26.6 °F 49% 30.10 in 10.0 mi East 4.6 mph - N/A   Clear
1:15 PM 46.4 °F 43.5 °F 26.6 °F 46% 30.08 in 10.0 mi East 5.8 mph - N/A   Clear
1:35 PM 46.4 °F 42.4 °F 26.6 °F 46% 30.07 in 10.0 mi East 8.1 mph - N/A   Clear
1:55 PM 46.4 °F 44.3 °F 24.8 °F 43% 30.06 in 10.0 mi ESE 4.6 mph - N/A   Clear
2:15 PM 46.4 °F 44.3 °F 26.6 °F 46% 30.06 in 10.0 mi East 4.6 mph - N/A   Clear
2:35 PM 46.4 °F 43.5 °F 26.6 °F 46% 30.05 in 10.0 mi East 5.8 mph - N/A   Clear
2:55 PM 48.2 °F - 26.6 °F 43% 30.04 in 10.0 mi ESE 5.8 mph - N/A   Clear
3:15 PM 48.2 °F - 26.6 °F 43% 30.04 in 10.0 mi SE 3.5 mph - N/A   Clear
3:35 PM 46.4 °F - 24.8 °F 43% 30.03 in 10.0 mi Calm Calm - N/A   Clear
3:55 PM 46.4 °F - 26.6 °F 46% 30.02 in 10.0 mi Calm Calm - N/A   Clear
4:15 PM 46.4 °F - 26.6 °F 46% 30.02 in 10.0 mi Calm Calm - N/A   Clear
4:35 PM 46.4 °F - 24.8 °F 43% 30.02 in 10.0 mi Calm Calm - N/A   Clear
4:55 PM 44.6 °F - 24.8 °F 46% 30.02 in 10.0 mi Calm Calm - N/A   Clear
5:15 PM 44.6 °F - 24.8 °F 46% 30.01 in 10.0 mi Calm Calm - N/A   Clear
5:35 PM 44.6 °F 42.2 °F 26.6 °F 49% 30.01 in 10.0 mi SSW 4.6 mph - N/A   Clear
5:55 PM 44.6 °F - 26.6 °F 49% 30.01 in 10.0 mi Calm Calm - N/A   Clear
6:15 PM 42.8 °F 40.1 °F 26.6 °F 53% 30.01 in 10.0 mi ESE 4.6 mph - N/A   Clear
6:35 PM 42.8 °F 41.1 °F 26.6 °F 53% 30.00 in 10.0 mi SSE 3.5 mph - N/A   Clear
6:55 PM 39.2 °F 35.9 °F 26.6 °F 61% 30.00 in 10.0 mi WSW 4.6 mph - N/A   Clear
7:15 PM 41.0 °F 38.0 °F 26.6 °F 57% 30.00 in 10.0 mi West 4.6 mph - N/A   Clear
7:35 PM 41.0 °F 38.0 °F 24.8 °F 53% 30.00 in 10.0 mi WSW 4.6 mph - N/A   Clear
7:55 PM 42.8 °F - 24.8 °F 49% 29.99 in 10.0 mi Calm Calm - N/A   Clear
8:15 PM 41.0 °F - 24.8 °F 53% 29.99 in 10.0 mi Calm Calm - N/A   Clear
8:35 PM 41.0 °F - 24.8 °F 53% 29.98 in 10.0 mi Calm Calm - N/A   Clear
8:55 PM 39.2 °F - 24.8 °F 56% 29.98 in 10.0 mi Calm Calm - N/A   Clear
9:15 PM 37.4 °F - 24.8 °F 60% 29.98 in 10.0 mi Calm Calm - N/A   Clear
9:35 PM 37.4 °F - 24.8 °F 60% 29.98 in 10.0 mi Calm Calm - N/A   Clear
9:55 PM 39.2 °F - 24.8 °F 56% 29.98 in 10.0 mi Calm Calm - N/A   Clear
10:15 PM 37.4 °F - 24.8 °F 60% 29.97 in 10.0 mi Calm Calm - N/A   Clear
10:35 PM 37.4 °F - 24.8 °F 60% 29.96 in 10.0 mi Calm Calm - N/A   Clear
10:55 PM 37.4 °F - 24.8 °F 60% 29.97 in 10.0 mi Calm Calm - N/A   Clear
11:15 PM 37.4 °F - 24.8 °F 60% 29.97 in 10.0 mi Calm Calm - N/A   Clear
11:35 PM 37.4 °F - 24.8 °F 60% 29.96 in 10.0 mi Calm Calm - N/A   Clear
11:55 PM 37.4 °F - 24.8 °F 60% 29.96 in 10.0 mi Calm Calm - N/A   Clear